EW4036 Weather Reports


Display with metric or nautical units.
time (UTC)temp
F
wind
direction
speed
MPH
gust
MPH
rain 1hr
in
rain 24hr
in
rain mn
in
humidity
%
barometer
mb
20260905114508 59 304 2.0 8.0 0.00 0.13 0.13 84 1000.1
20260905113008 59 245 7.0 10.0 0.00 0.13 0.13 83 1000.1
20260905111508 59 267 6.0 8.0 0.00 0.13 0.13 81 1000.0
20260905110013 59 284 3.0 9.0 0.00 0.13 0.13 85 999.9
20260905104508 59 269 6.0 12.0 0.00 0.13 0.13 88 999.6
20260905103006 58 247 4.0 9.0 0.01 0.13 0.13 95 999.6
20260905100123 56 315 2.0 5.0 0.01 0.13 0.13 98 999.5
20260905094625 55 297 4.0 6.0 0.01 0.13 0.13 97 999.5
20260905093007 55 283 4.0 7.0 0.00 0.12 0.12 98 999.4
20260905091510 54 273 6.0 8.0 0.00 0.12 0.12 98 999.3
20260905090007 54 249 4.0 6.0 0.00 0.12 0.12 98 999.2
20260905084514 54 256 4.0 6.0 0.00 0.16 0.12 98 999.1
20260905083009 54 227 3.0 7.0 0.00 0.16 0.12 98 998.9
20260905081508 54 248 5.0 7.0 0.00 0.16 0.12 99 998.8
20260905080012 54 224 5.0 8.0 0.00 0.16 0.12 99 998.6
20260905074607 53 232 4.0 7.0 0.00 0.22 0.12 99 998.5
20260905073110 53 250 4.0 7.0 0.00 0.22 0.12 99 998.5
20260905071510 53 219 3.0 6.0 0.00 0.22 0.12 99 998.4
20260905070012 52 218 1.0 4.0 0.01 0.22 0.12 99 998.3
20260905064507 52 243 3.0 5.0 0.01 0.23 0.12 99 998.2
20260905063007 51 220 1.0 4.0 0.01 0.23 0.12 99 998.1
20260905061508 51 223 2.0 5.0 0.02 0.23 0.12 99 997.9
20260905060015 51 188 1.0 5.0 0.03 0.22 0.11 99 997.7
20260905054508 51 97 0.0 3.0 0.03 0.24 0.11 99 997.5
20260905053107 51 157 0.0 0.0 0.03 0.24 0.11 99 997.5
20260905051509 51 190 1.0 3.0 0.02 0.22 0.09 98 997.5
20260905050006 51 196 2.0 4.0 0.00 0.20 0.08 98 997.4
20260905044508 51 191 0.0 0.0 0.00 0.20 0.08 99 997.2
20260905043011 51 182 1.0 4.0 0.00 0.20 0.08 98 997.0
20260905041607 51 192 0.0 0.0 0.00 0.20 0.08 98 997.0
20260905040017 51 193 1.0 3.0 0.00 0.20 0.08 98 996.8
20260905034511 51 223 0.0 1.0 0.00 0.21 0.08 98 996.8
20260905033025 51 196 0.0 0.0 0.00 0.21 0.08 98 996.6
20260905031507 51 221 0.0 0.0 0.00 0.21 0.08 98 996.5
20260905030010 51 221 0.0 0.0 0.00 0.21 0.08 98 996.3
20260905024607 51 213 0.0 0.0 0.01 0.21 0.08 98 996.2
20260905023029 51 184 0.0 0.0 0.01 0.21 0.08 98 996.1
20260905021607 51 117 0.0 0.0 0.03 0.21 0.08 98 995.9
20260905020021 51 117 0.0 0.0 0.08 0.21 0.08 98 995.8
20260905014510 51 119 0.0 0.0 0.07 0.20 0.07 98 995.6
20260905013010 51 119 0.0 0.0 0.07 0.20 0.07 98 995.7
20260905011507 51 82 0.0 0.0 0.04 0.17 0.04 98 995.7
20260905010110 51 67 0.0 0.0 0.00 0.13 0.00 98 995.6
20260905004514 50 67 0.0 0.0 0.00 0.13 0.00 98 995.6
20260905003011 50 87 0.0 0.0 0.00 0.13 0.00 98 995.4
20260905001516 50 87 0.0 0.0 0.00 0.13 0.00 98 995.4
20260905000011 50 86 0.0 0.0 0.00 0.13 0.00 98 995.2
20260904234606 50 65 0.0 0.0 0.00 0.13 0.00 98 995.4
20260904233010 50 65 0.0 0.0 0.00 0.13 0.00 97 995.3
20260904231610 50 60 0.0 0.0 0.00 0.13 0.00 97 995.3
20260904230011 50 185 0.0 0.0 0.00 0.13 0.00 97 995.2
20260904224608 50 153 0.0 0.0 0.00 0.13 0.00 97 995.2
20260904223009 50 153 0.0 0.0 0.00 0.13 0.00 97 995.3
20260904221509 50 154 0.0 0.0 0.00 0.13 0.00 97 995.2
20260904220021 50 355 0.0 0.0 0.00 0.13 0.00 96 995.1
20260904214506 50 355 0.0 0.0 0.00 0.13 0.13 96 995.0
20260904213012 50 355 0.0 0.0 0.00 0.13 0.13 96 995.0
20260904211507 51 355 0.0 1.0 0.00 0.13 0.13 96 995.0
20260904210012 51 355 1.0 3.0 0.00 0.13 0.13 96 994.9
20260904204607 51 301 0.0 2.0 0.00 0.13 0.13 96 995.1
20260904203011 51 288 0.0 0.0 0.00 0.13 0.13 96 995.1
20260904201507 51 288 0.0 2.0 0.00 0.13 0.13 96 995.1
20260904200017 51 304 1.0 2.0 0.00 0.13 0.13 96 995.2
20260904194523 51 248 1.0 2.0 0.00 0.13 0.13 95 995.0
20260904193006 52 360 1.0 4.0 0.00 0.13 0.13 95 995.0
20260904191511 52 311 2.0 4.0 0.00 0.13 0.13 95 995.0
20260904190009 53 299 2.0 3.0 0.00 0.13 0.13 95 995.1
20260904184507 53 296 0.0 0.0 0.00 0.13 0.13 94 995.0
20260904183010 53 285 0.0 0.0 0.00 0.13 0.13 94 995.0
20260904181612 54 267 0.0 0.0 0.00 0.13 0.13 94 995.1
20260904180009 54 301 1.0 3.0 0.00 0.13 0.13 94 995.1
20260904174618 54 307 0.0 4.0 0.00 0.13 0.13 93 995.0
20260904173010 54 284 1.0 4.0 0.00 0.13 0.13 93 995.0
20260904171506 54 302 2.0 5.0 0.00 0.13 0.13 92 995.0
20260904170012 55 271 3.0 7.0 0.00 0.13 0.13 92 995.0
20260904164510 55 272 4.0 7.0 0.00 0.13 0.13 91 995.0
20260904163007 55 300 5.0 10.0 0.00 0.13 0.13 91 994.9
20260904161508 55 317 6.0 10.0 0.00 0.13 0.13 91 995.0
20260904160011 55 317 6.0 10.0 0.00 0.13 0.13 91 995.0
20260904154508 56 315 6.0 12.0 0.00 0.13 0.13 91 995.0
20260904153010 57 297 7.0 12.0 0.00 0.13 0.13 91 994.9
20260904151506 57 257 9.0 13.0 0.00 0.13 0.13 91 994.9
20260904150011 57 278 7.0 14.0 0.00 0.13 0.13 91 995.0
20260904144510 57 268 10.0 15.0 0.00 0.13 0.13 91 994.9
20260904143009 58 254 9.0 15.0 0.00 0.13 0.13 91 994.9
20260904141607 58 264 10.0 19.0 0.00 0.13 0.13 90 994.8
20260904140012 59 232 9.0 16.0 0.00 0.13 0.13 91 994.7
20260904134505 58 223 10.0 21.0 0.00 0.13 0.13 91 994.6
20260904133007 58 236 12.0 21.0 0.00 0.13 0.13 90 994.7
20260904131506 58 211 13.0 19.0 0.00 0.13 0.13 91 994.8
20260904130009 57 221 10.0 18.0 0.00 0.13 0.13 90 995.0
20260904124508 58 213 13.0 17.0 0.00 0.13 0.13 88 995.1
20260904123006 58 217 11.0 20.0 0.00 0.13 0.13 86 995.2
20260904121506 59 215 12.0 18.0 0.00 0.13 0.13 86 995.3
20260904120007 59 213 12.0 18.0 0.00 0.13 0.13 88 995.4